Philadelphia Wings Airport, PA

1:22 PM EDT on 六月 27, 2017 (GMT -0400)
Philadelphia Wings Airport

天気 に付いての歴史 KLOM - 四月, 2017

Change the Weather History Date:

金曜日, 四月 21, 2017

  Actual Average (KPNE) Record (KPNE)
Temperature  
平均温度 55 °F -  
最高温度 60 °F 63 °F 79 °F (2012)
最低温度 50 °F 41 °F 33 °F (1997)
Degree Days  
暖房度日 10    
Growing Degree Days 5 (Base 50)    
Moisture  
露点温度 51 °F    
Average Humidity 91    
Maximum Humidity 100    
Minimum Humidity 77    
降水確率  
降水確率 0.00 インチ - - ()
海面圧  
海面圧 29.93 インチ    
 
風速 5 Mph (東)    
最大風速 10 Mph    
Max Gust Speed -    
視程 8 マイル    
イベント      
Averages and records for this station are not official NWS values.
T = Trace of Precipitation, MM = Missing Value Source: NWS Daily Summary

Daily Weather History Graph

Daily Weather History Graph

Search for Another Location

Airport or City:

Trip Planner

Search our weather history database for the weather conditions in past years. The results will help you decide how hot, cold, wet, or windy it might be!

Date:

天文

Apr. 21, 2017 入り
実時間 6:13 AM EDT 7:46 PM EDT
常用薄明 5:45 AM EDT 8:14 PM EDT
航海薄明 5:11 AM EDT 8:49 PM EDT
天文薄明 4:34 AM EDT 9:25 PM EDT
3:30 AM EDT (4/21) 2:26 PM EDT (4/21)
可視光の長さ 14h 29m
可照時間
13h 32m
二十六夜, 28% of the Moon is Illuminated
4月 21
二十六夜
4月 26
新しい
5月 2
上弦
5月 10
満月
5月 18
第 4 四半期

Hourly Weather History & Observations

時間 (EDT) 温度 露点温度 湿度 気圧 視程 Wind Dir 風速 突風の速度 Precip イベント 現在の気象状況
12:15 AM 55.4 °F 50.0 °F 82% 29.99 インチ 10.0 マイル 5.8 Mph - N/A  
12:35 AM 53.6 °F 50.0 °F 88% 29.99 インチ 10.0 マイル 4.6 Mph - N/A  
12:55 AM 53.6 °F 50.0 °F 88% 30.00 インチ 10.0 マイル 5.8 Mph - N/A  
1:15 AM 53.6 °F 50.0 °F 88% 29.98 インチ 10.0 マイル 8.1 Mph - N/A  
1:35 AM 53.6 °F 50.0 °F 88% 29.97 インチ 10.0 マイル 東南東 6.9 Mph - N/A  
1:55 AM 53.6 °F 50.0 °F 88% 29.96 インチ 10.0 マイル 東南東 6.9 Mph - N/A  
2:15 AM 53.6 °F 50.0 °F 88% 29.95 インチ 10.0 マイル 8.1 Mph - N/A  
2:35 AM 51.8 °F 50.0 °F 94% 29.94 インチ 10.0 マイル 9.2 Mph - N/A  
2:55 AM 51.8 °F 50.0 °F 94% 29.93 インチ 10.0 マイル 8.1 Mph - N/A  
3:15 AM 51.8 °F 50.0 °F 94% 29.94 インチ 10.0 マイル 5.8 Mph - N/A  
3:35 AM 51.8 °F 50.0 °F 94% 29.94 インチ 10.0 マイル 6.9 Mph - N/A  
3:55 AM 51.8 °F 50.0 °F 94% 29.94 インチ 10.0 マイル 5.8 Mph - N/A  
4:15 AM 51.8 °F 50.0 °F 94% 29.94 インチ 10.0 マイル 4.6 Mph - N/A  
4:35 AM 51.8 °F 50.0 °F 94% 29.94 インチ 10.0 マイル 東南東 4.6 Mph - N/A  
4:55 AM 51.8 °F 50.0 °F 94% 29.94 インチ 10.0 マイル 4.6 Mph - N/A  
5:15 AM 51.8 °F 50.0 °F 94% 29.95 インチ 10.0 マイル 東南東 3.5 Mph - N/A  
5:35 AM 51.8 °F 50.0 °F 94% 29.95 インチ 10.0 マイル 4.6 Mph - N/A  
5:55 AM 51.8 °F 50.0 °F 94% 29.96 インチ 5.0 マイル 北東 3.5 Mph - N/A  
6:15 AM 51.8 °F 50.0 °F 94% 29.94 インチ 3.0 マイル 10.4 Mph - N/A  
6:35 AM 50.0 °F 50.0 °F 100% 29.96 インチ 2.5 マイル 5.8 Mph - N/A  
6:55 AM 50.0 °F 50.0 °F 100% 29.97 インチ 1.8 マイル 北東 6.9 Mph - N/A  
7:15 AM 50.0 °F 50.0 °F 100% 30.00 インチ 2.0 マイル 北東 3.5 Mph - N/A  
7:35 AM 50.0 °F 50.0 °F 100% 29.99 インチ 1.8 マイル 5.8 Mph - N/A  
7:55 AM 50.0 °F 50.0 °F 100% 29.97 インチ 2.5 マイル 5.8 Mph - N/A  
8:15 AM 50.0 °F 50.0 °F 100% 29.97 インチ 4.0 マイル 東北東 6.9 Mph - N/A  
8:35 AM 50.0 °F 50.0 °F 100% 29.96 インチ 7.0 マイル 5.8 Mph - N/A  
8:55 AM 50.0 °F 50.0 °F 100% 29.94 インチ 7.0 マイル 東北東 6.9 Mph - N/A  
9:15 AM 50.0 °F 50.0 °F 100% 29.93 インチ 10.0 マイル 6.9 Mph - N/A  
9:35 AM 50.0 °F 50.0 °F 100% 29.94 インチ 10.0 マイル 東北東 4.6 Mph - N/A  
9:55 AM 50.0 °F 48.2 °F 94% 29.95 インチ 10.0 マイル ほぼ無風 ほぼ無風 - N/A  
10:15 AM 50.0 °F 50.0 °F 100% 29.95 インチ 10.0 マイル 東北東 3.5 Mph - N/A  
10:35 AM 50.0 °F 50.0 °F 100% 29.94 インチ 10.0 マイル 東北東 6.9 Mph - N/A  
10:55 AM 50.0 °F 50.0 °F 100% 29.95 インチ 10.0 マイル 東北東 6.9 Mph - N/A  
11:15 AM 50.0 °F 50.0 °F 100% 29.94 インチ 10.0 マイル 3.5 Mph - N/A  
11:35 AM 51.8 °F 50.0 °F 94% 29.93 インチ 10.0 マイル 東北東 4.6 Mph - N/A  
11:55 AM 51.8 °F 50.0 °F 94% 29.93 インチ 7.0 マイル 東北東 3.5 Mph - N/A  
12:15 PM 51.8 °F 50.0 °F 94% 29.92 インチ 7.0 マイル 3.5 Mph - N/A  
12:35 PM 51.8 °F 51.8 °F 100% 29.91 インチ 7.0 マイル 3.5 Mph - N/A  
12:55 PM 53.6 °F 51.8 °F 94% 29.93 インチ 7.0 マイル 3.5 Mph - N/A  
1:15 PM 53.6 °F 51.8 °F 94% 29.92 インチ 10.0 マイル 東北東 4.6 Mph - N/A  
1:35 PM 53.6 °F 51.8 °F 94% 29.92 インチ 10.0 マイル ほぼ無風 ほぼ無風 - N/A  
1:55 PM 55.4 °F 51.8 °F 88% 29.92 インチ 7.0 マイル ほぼ無風 ほぼ無風 - N/A  
2:15 PM 55.4 °F 51.8 °F 88% 29.92 インチ 7.0 マイル 東南東 4.6 Mph - N/A  
2:35 PM 55.4 °F 51.8 °F 88% 29.91 インチ 10.0 マイル 4.6 Mph - N/A  
2:55 PM 55.4 °F 51.8 °F 88% 29.90 インチ 10.0 マイル 3.5 Mph - N/A  
3:15 PM 55.4 °F 51.8 °F 88% 29.90 インチ 7.0 マイル ほぼ無風 ほぼ無風 - N/A  
3:35 PM 55.4 °F 51.8 °F 88% 29.88 インチ 7.0 マイル 南東 3.5 Mph - N/A  
3:55 PM 57.2 °F 53.6 °F 88% 29.88 インチ 7.0 マイル ほぼ無風 ほぼ無風 - N/A  
4:15 PM 59.0 °F 53.6 °F 82% 29.87 インチ 7.0 マイル 3.5 Mph - N/A  
4:35 PM 59.0 °F 51.8 °F 77% 29.87 インチ 7.0 マイル ほぼ無風 ほぼ無風 - N/A  
4:55 PM 59.0 °F 53.6 °F 82% 29.86 インチ 10.0 マイル 東南東 3.5 Mph - N/A  
5:15 PM 60.8 °F 53.6 °F 77% 29.86 インチ 10.0 マイル 東北東 4.6 Mph - N/A  
5:35 PM 59.0 °F 53.6 °F 82% 29.86 インチ 10.0 マイル 6.9 Mph - N/A  
5:55 PM 59.0 °F 53.6 °F 82% 29.86 インチ 10.0 マイル 東北東 4.6 Mph - N/A  
6:15 PM 59.0 °F 53.6 °F 82% 29.87 インチ 10.0 マイル 東北東 3.5 Mph - N/A  
6:35 PM 59.0 °F 51.8 °F 77% 29.88 インチ 10.0 マイル 3.5 Mph - N/A  
6:55 PM 57.2 °F 51.8 °F 82% 29.88 インチ 10.0 マイル ほぼ無風 ほぼ無風 - N/A  
7:15 PM 57.2 °F 53.6 °F 88% 29.88 インチ 10.0 マイル ほぼ無風 ほぼ無風 - N/A  
7:35 PM 57.2 °F 51.8 °F 82% 29.90 インチ 10.0 マイル ほぼ無風 ほぼ無風 - N/A  
7:55 PM 55.4 °F 51.8 °F 88% 29.90 インチ 10.0 マイル 北東 4.6 Mph - N/A  
8:15 PM 55.4 °F 51.8 °F 88% 29.89 インチ 10.0 マイル 東南東 5.8 Mph - N/A  
8:35 PM 55.4 °F 51.8 °F 88% 29.91 インチ 10.0 マイル 東北東 3.5 Mph - N/A  
8:55 PM 55.4 °F 51.8 °F 88% 29.90 インチ 7.0 マイル 東北東 3.5 Mph - N/A  
9:15 PM 55.4 °F 51.8 °F 88% 29.91 インチ 7.0 マイル ほぼ無風 ほぼ無風 - N/A  
9:35 PM 55.4 °F 51.8 °F 88% 29.91 インチ 7.0 マイル 5.8 Mph - N/A  
9:55 PM 55.4 °F 51.8 °F 88% 29.92 インチ 7.0 マイル ほぼ無風 ほぼ無風 - N/A  
10:15 PM 55.4 °F 51.8 °F 88% 29.92 インチ 7.0 マイル 3.5 Mph - N/A  
10:35 PM 53.6 °F 51.8 °F 94% 29.92 インチ 7.0 マイル 3.5 Mph - N/A   だいたい曇
10:55 PM 53.6 °F 51.8 °F 94% 29.92 インチ 7.0 マイル 3.5 Mph - N/A   だいたい曇
11:15 PM 53.6 °F 51.8 °F 94% 29.91 インチ 5.0 マイル ほぼ無風 ほぼ無風 - N/A  
11:35 PM 53.6 °F 51.8 °F 94% 29.92 インチ 5.0 マイル ほぼ無風 ほぼ無風 - N/A   やや曇
11:55 PM 53.6 °F 51.8 °F 94% 29.92 インチ 5.0 マイル ほぼ無風 ほぼ無風 - N/A   だいたい曇